GW1450 Weather Reports


Display with metric or nautical units.
time (UTC)temp
F
wind
direction
speed
MPH
gust
MPH
rain 1hr
in
rain 24hr
in
rain mn
in
humidity
%
barometer
mb
20260507193036 69 135 5.0 13.0 0.00 0.00 0.00 37 1017.5
20260507191534 68 193 3.0 12.0 0.00 0.00 0.00 40 1017.7
20260507190034 66 170 6.0 12.0 0.00 0.00 0.00 44 1018.0
20260507184533 65 171 4.0 11.0 0.00 0.00 0.00 47 1018.3
20260507181530 64 181 6.0 13.0 0.00 0.00 0.00 49 1018.5
20260507180036 63 160 7.0 14.0 0.00 0.00 0.00 51 1018.5
20260507174534 63 162 5.0 11.0 0.00 0.00 0.00 52 1018.6
20260507173029 62 179 6.0 14.0 0.00 0.00 0.00 55 1018.8
20260507171538 62 177 7.0 13.0 0.00 0.00 0.00 56 1018.9
20260507170034 63 178 6.0 13.0 0.00 0.00 0.00 55 1018.8
20260507164533 62 289 3.0 10.0 0.00 0.00 0.00 57 1018.8
20260507163147 61 302 4.0 10.0 0.00 0.00 0.00 60 1018.9
20260507161539 59 262 4.0 9.0 0.00 0.00 0.00 63 1019.1
20260507160035 58 251 5.0 9.0 0.00 0.00 0.00 65 1019.3
20260507154533 57 231 5.0 9.0 0.00 0.00 0.00 68 1019.6
20260507153033 59 137 2.0 6.0 0.00 0.00 0.00 63 1019.7
20260507151534 58 81 0.0 3.0 0.00 0.00 0.00 66 1019.8
20260507150047 56 157 0.0 0.0 0.00 0.00 0.00 69 1019.8
20260507144534 56 179 0.0 2.0 0.00 0.00 0.00 73 1019.7
20260507143035 54 202 0.0 0.0 0.00 0.00 0.00 78 1019.7
20260507140035 49 202 0.0 3.0 0.00 0.00 0.00 86 1019.3
20260507133034 47 202 1.0 4.0 0.00 0.00 0.00 88 1019.1
20260507131535 47 202 1.0 5.0 0.00 0.00 0.00 89 1019.1
20260507130032 46 202 1.0 4.0 0.00 0.00 0.00 89 1019.0
20260507124531 46 202 0.0 3.0 0.00 0.00 0.00 88 1019.0
20260507123142 47 202 0.0 3.0 0.00 0.00 0.00 88 1018.8
20260507121536 48 202 0.0 0.0 0.00 0.00 0.00 86 1018.7
20260507120036 48 183 0.0 3.0 0.00 0.00 0.00 87 1018.7
20260507114534 48 142 0.0 5.0 0.00 0.00 0.00 85 1018.6
20260507111535 51 88 0.0 2.0 0.00 0.00 0.00 80 1018.4
20260507110035 53 87 1.0 6.0 0.00 0.00 0.00 76 1018.3
20260507104531 55 177 0.0 6.0 0.00 0.00 0.00 71 1018.2
20260507100107 56 305 5.0 11.0 0.00 0.00 0.00 71 1018.0
20260507094531 57 311 3.0 12.0 0.00 0.00 0.00 69 1018.1
20260507093036 59 315 1.0 7.0 0.00 0.00 0.00 61 1018.1
20260507091530 61 275 6.0 11.0 0.00 0.00 0.00 54 1018.1
20260507084535 59 252 7.0 14.0 0.00 0.00 0.00 61 1018.3
20260507081608 54 196 0.0 4.0 0.00 0.00 0.00 79 1018.4
20260507080035 55 163 0.0 3.0 0.00 0.00 0.00 78 1018.4
20260507074533 56 224 0.0 1.0 0.00 0.00 0.00 75 1018.4
20260507073037 58 67 1.0 6.0 0.00 0.00 0.00 72 1018.2
20260507071537 58 129 0.0 4.0 0.00 0.00 0.00 70 1018.2
20260507070035 58 178 0.0 1.0 0.00 0.00 0.00 68 1018.3
20260507061535 62 261 5.0 10.0 0.00 0.00 0.00 61 1018.5
20260507060029 62 254 6.0 11.0 0.00 0.00 0.00 59 1018.5
20260507054642 62 272 8.0 16.0 0.00 0.00 0.00 58 1018.6
20260507051530 63 272 7.0 15.0 0.00 0.00 0.00 53 1018.7
20260507050036 64 273 3.0 11.0 0.00 0.00 0.00 51 1018.9
20260507044530 63 255 2.0 12.0 0.00 0.00 0.00 51 1018.9
20260507043035 64 333 1.0 10.0 0.00 0.00 0.00 48 1018.8
20260507041535 64 228 1.0 9.0 0.00 0.00 0.00 48 1018.6
20260507040045 65 244 1.0 7.0 0.00 0.00 0.00 47 1018.5
20260507034537 66 265 5.0 10.0 0.00 0.00 0.00 46 1018.5
20260507033108 67 275 6.0 13.0 0.00 0.00 0.00 45 1018.4
20260507031535 67 264 8.0 18.0 0.00 0.00 0.00 45 1018.3
20260507030107 68 253 9.0 19.0 0.00 0.00 0.00 45 1018.2
20260507024607 68 255 10.0 19.0 0.00 0.00 0.00 45 1018.1
20260507023036 68 254 8.0 18.0 0.00 0.00 0.00 44 1018.0
20260507021531 69 252 8.0 17.0 0.00 0.00 0.00 44 1017.9
20260507020036 69 254 11.0 21.0 0.00 0.00 0.00 43 1017.7
20260507014533 69 253 10.0 22.0 0.00 0.00 0.00 44 1017.6
20260507013032 70 242 8.0 23.0 0.00 0.00 0.00 43 1017.5
20260507011535 70 246 8.0 17.0 0.00 0.00 0.00 42 1017.4
20260507010036 71 246 8.0 22.0 0.00 0.00 0.00 41 1017.4
20260507004535 71 248 7.0 18.0 0.00 0.00 0.00 40 1017.3
20260507003036 72 247 8.0 17.0 0.00 0.00 0.00 40 1017.2
20260507001531 72 257 6.0 20.0 0.00 0.00 0.00 41 1017.1
20260506234536 73 269 6.0 19.0 0.00 0.00 0.00 41 1016.9
20260506233036 73 293 7.0 17.0 0.00 0.00 0.00 41 1016.9
20260506231535 74 284 6.0 15.0 0.00 0.00 0.00 41 1016.9
20260506230033 75 258 10.0 21.0 0.00 0.00 0.00 40 1016.9
20260506224534 75 247 6.0 22.0 0.00 0.00 0.00 41 1017.0
20260506223034 75 292 6.0 17.0 0.00 0.00 0.00 41 1017.4
20260506220031 76 284 8.0 23.0 0.00 0.00 0.00 39 1017.2
20260506213035 76 286 8.0 24.0 0.00 0.00 0.00 41 1017.1
20260506211611 75 261 9.0 18.0 0.00 0.00 0.00 43 1017.2
20260506204536 75 254 8.0 25.0 0.00 0.00 0.00 43 1017.3
20260506203035 75 259 7.0 21.0 0.00 0.00 0.00 43 1017.3
20260506200033 75 225 4.0 13.0 0.00 0.00 0.00 44 1017.4
20260506194532 74 237 3.0 11.0 0.00 0.00 0.00 47 1017.6